TimeMST,TemperatureF,Dew PointF,Humidity,Sea Level PressureIn,VisibilityMPH,Wind Direction,Wind SpeedMPH,Gust SpeedMPH,PrecipitationIn,Events,Conditions,WindDirDegrees,DateUTC
12:53 AM,36.0,7.0,30,30.01,10.0,SSW,3.5,-,N/A,,Clear,200,2013-01-24 07:53:00
1:36 AM,48.2,-2.2,12,30.08,10.0,West,21.9,28.8,N/A,,Clear,260,2013-01-24 08:36:00
1:53 AM,46.0,-0.9,14,29.94,10.0,West,15.0,-,N/A,,Clear,280,2013-01-24 08:53:00
2:53 AM,45.0,-0.0,15,29.95,10.0,West,21.9,-,N/A,,Clear,260,2013-01-24 09:53:00
3:53 AM,45.0,-0.9,15,29.96,10.0,West,26.5,-,N/A,,Clear,260,2013-01-24 10:53:00
4:53 AM,42.1,-0.0,17,29.97,10.0,West,17.3,-,N/A,,Clear,260,2013-01-24 11:53:00
5:53 AM,37.0,3.0,24,30.04,10.0,West,13.8,-,N/A,,Clear,270,2013-01-24 12:53:00
6:53 AM,37.9,3.0,23,30.07,10.0,WNW,8.1,-,N/A,,Clear,290,2013-01-24 13:53:00
7:53 AM,37.0,3.0,24,30.07,10.0,Calm,Calm,-,N/A,,Clear,0,2013-01-24 14:53:00
8:53 AM,48.0,-0.0,14,30.00,10.0,West,16.1,-,N/A,,Clear,280,2013-01-24 15:53:00
9:53 AM,52.0,6.1,16,29.98,10.0,WNW,19.6,24.2,N/A,,Clear,290,2013-01-24 16:53:00
10:53 AM,54.0,8.1,16,29.97,10.0,WNW,23.0,33.4,N/A,,Clear,290,2013-01-24 17:53:00
11:53 AM,55.0,12.0,18,29.93,10.0,West,24.2,32.2,N/A,,Mostly Cloudy,280,2013-01-24 18:53:00
12:53 PM,55.9,17.1,22,29.92,10.0,West,34.5,48.3,N/A,,Partly Cloudy,280,2013-01-24 19:53:00
1:53 PM,55.9,17.1,22,29.86,10.0,West,26.5,35.7,N/A,,Partly Cloudy,270,2013-01-24 20:53:00
2:53 PM,53.1,18.0,25,29.89,10.0,WSW,34.5,44.9,N/A,,Clear,250,2013-01-24 21:53:00
3:53 PM,52.0,21.9,31,29.92,10.0,West,26.5,36.8,N/A,,Mostly Cloudy,260,2013-01-24 22:53:00
4:53 PM,48.0,24.1,39,29.98,10.0,West,13.8,27.6,N/A,,Partly Cloudy,280,2013-01-24 23:53:00
5:53 PM,46.0,24.1,42,30.03,10.0,Calm,Calm,-,N/A,,Mostly Cloudy,0,2013-01-25 00:53:00
6:53 PM,44.1,25.0,47,30.05,10.0,NW,11.5,24.2,N/A,,Clear,310,2013-01-25 01:53:00
7:53 PM,45.0,26.1,48,30.04,10.0,West,31.1,41.4,N/A,,Clear,270,2013-01-25 02:53:00
8:53 PM,42.1,26.1,53,30.05,10.0,WNW,9.2,-,N/A,,Clear,300,2013-01-25 03:53:00
9:53 PM,42.1,25.0,51,30.00,10.0,WNW,20.7,28.8,N/A,,Clear,290,2013-01-25 04:53:00
10:53 PM,39.9,25.0,55,30.05,10.0,NW,5.8,-,N/A,,Clear,320,2013-01-25 05:53:00
11:53 PM,37.0,25.0,62,30.05,10.0,West,13.8,-,N/A,,Clear,280,2013-01-25 06:53:00